Change the Weather History Date:

Friday, May 4, 2012

  Actual Average Record
Temperature  
Mean Temperature 79 °F 68 °F  
Max Temperature 91 °F 79 °F 94 °F (1943)
Min Temperature 67 °F 58 °F 35 °F (2013)
Degree Days  
Heating Degree Days 0 1  
Month to date heating degree days 0 5  
Since 1 July heating degree days 2206 2869  
Cooling Degree Days 14 4  
Month to date cooling degree days 50 16  
Year to date cooling degree days 238 103  
Growing Degree Days 28 (Base 50)    
Moisture  
Dew Point 69 °F    
Average Humidity 76    
Maximum Humidity 100    
Minimum Humidity 52    
Precipitation  
Precipitation 0.00 in 0.18 in 4.07 in (1979)
Month to date precipitation 0.00 0.70  
Year to date precipitation 12.30 18.85  
Snow  
Snow 0.00 in 0.00 in - ()
Month to date snowfall 0.0 0.0  
Since 1 July snowfall 0.5 3.1  
Snow Depth 0.00 in    
Sea Level Pressure  
Sea Level Pressure 29.95 in    
Wind  
Wind Speed 7 mph (South)    
Max Wind Speed 15 mph    
Max Gust Speed 20 mph    
Visibility 7 miles    
Events      
T = Trace of Precipitation, MM = Missing Value Source: NWS Daily Summary

Daily Weather History Graph

Daily Weather History Graph

Search for Another Location

Airport or City:

Trip Planner

Search our weather history database for the weather conditions in past years. The results will help you decide how hot, cold, wet, or windy it might be!

Date:

Astronomy

May. 04, 2012 Rise Set
Actual Time 6:14 AM CDT 7:54 PM CDT
Civil Twilight 5:47 AM CDT 8:21 PM CDT
Nautical Twilight 5:15 AM CDT 8:54 PM CDT
Astronomical Twilight 4:41 AM CDT 9:28 PM CDT
Moon 6:34 PM CDT (5/4) 4:52 AM CDT (5/4)
Length of Visible Light 14h 33m
Length of Day
13h 39m
Waxing Gibbous, 97% of the Moon is Illuminated
May 4
Waxing Gibbous
May 5
Full
May 12
Last Quarter
May 20
New
May 28
First Quarter

Hourly Weather History & Observations

Time (CDT) Temp. Heat Index Dew Point Humidity Pressure Visibility Wind Dir Wind Speed Gust Speed Precip Events Conditions
12:53 AM 71.1 °F - 69.1 °F 93% 29.96 in 10.0 mi Calm Calm - N/A   Clear
1:53 AM 71.1 °F - 70.0 °F 96% 29.95 in 9.0 mi Calm Calm - N/A   Clear
2:53 AM 69.1 °F - 69.1 °F 100% 29.94 in 5.0 mi Calm Calm - N/A   Clear
3:04 AM 69.8 °F - 68.0 °F 94% 29.94 in 1.8 mi Calm Calm - N/A   Clear
3:34 AM 69.8 °F - 68.0 °F 94% 29.94 in 3.0 mi South 3.5 mph - N/A   Clear
3:53 AM 68.0 °F - 68.0 °F 100% 29.93 in 7.0 mi South 4.6 mph - N/A   Clear
4:53 AM 69.1 °F - 68.0 °F 96% 29.93 in 5.0 mi South 4.6 mph - N/A   Clear
5:21 AM 66.2 °F - 66.2 °F 100% 29.94 in 1.5 mi Calm Calm - N/A   Clear
5:36 AM 68.0 °F - 66.2 °F 94% 29.95 in 4.0 mi South 3.5 mph - N/A   Clear
5:53 AM 68.0 °F - 66.9 °F 96% 29.95 in 5.0 mi South 4.6 mph - N/A   Clear
6:25 AM 68.0 °F - 66.2 °F 94% 29.97 in 2.0 mi Calm Calm - N/A   Clear
6:40 AM 68.0 °F - 66.2 °F 94% 29.98 in 1.8 mi Calm Calm - N/A   Clear
6:50 AM 68.0 °F - 66.2 °F 94% 29.99 in 2.5 mi SE 3.5 mph - N/A   Clear
6:53 AM 68.0 °F - 66.9 °F 96% 29.98 in 2.5 mi SE 3.5 mph - N/A   Clear
7:02 AM 69.8 °F - 69.8 °F 100% 29.99 in 3.0 mi SE 4.6 mph - N/A   Clear
7:53 AM 71.6 °F - 71.6 °F 100% 29.99 in 7.0 mi South 4.6 mph - N/A   Clear
8:53 AM 77.0 °F - 71.1 °F 82% 29.99 in 10.0 mi SSW 5.8 mph - N/A   Clear
9:53 AM 81.0 °F 85.2 °F 72.0 °F 74% 29.99 in 10.0 mi SSW 6.9 mph - N/A   Clear
10:53 AM 84.0 °F 89.0 °F 71.1 °F 65% 29.99 in 10.0 mi SSW 9.2 mph - N/A   Clear
11:53 AM 84.9 °F 90.1 °F 71.1 °F 63% 29.99 in 10.0 mi SSW 12.7 mph - N/A   Mostly Cloudy
12:53 PM 87.1 °F 92.0 °F 70.0 °F 57% 29.99 in 10.0 mi South 5.8 mph - N/A   Mostly Cloudy
1:53 PM 88.0 °F 92.1 °F 69.1 °F 53% 29.98 in 10.0 mi SSE 8.1 mph 16.1 mph N/A   Mostly Cloudy
2:53 PM 88.0 °F 92.1 °F 69.1 °F 53% 29.97 in 10.0 mi South 10.4 mph - N/A   Partly Cloudy
3:53 PM 90.0 °F 94.5 °F 69.1 °F 50% 29.94 in 10.0 mi South 13.8 mph - N/A   Partly Cloudy
4:53 PM 90.0 °F 94.5 °F 69.1 °F 50% 29.93 in 10.0 mi SSE 10.4 mph - N/A   Clear
5:53 PM 88.0 °F 92.1 °F 69.1 °F 53% 29.91 in 10.0 mi South 12.7 mph - N/A   Clear
6:53 PM 84.9 °F 89.4 °F 70.0 °F 61% 29.92 in 10.0 mi SSW 8.1 mph - N/A   Clear
7:53 PM 80.1 °F 83.2 °F 70.0 °F 71% 29.91 in 10.0 mi South 4.6 mph - N/A   Clear
8:53 PM 78.1 °F - 71.1 °F 79% 29.91 in 10.0 mi South 5.8 mph - N/A   Clear
9:53 PM 77.0 °F - 71.1 °F 82% 29.93 in 10.0 mi SSW 3.5 mph - N/A   Clear
10:53 PM 75.9 °F - 71.1 °F 85% 29.93 in 10.0 mi SSW 3.5 mph - N/A   Clear
11:53 PM 75.0 °F - 70.0 °F 84% 29.93 in 10.0 mi SSW 5.8 mph - N/A   Clear